Regional Weather Roundup
Issued by NWS Midland/Odessa, TX

Skip options and go directly to product.
Home | Oldest Version | Previous Version | Current Version | All | Text Only | Save Text | Print | Product List | Glossary Off

Skip product version selection by date and time.   

430
ASUS44 KMAF 310502
RWRMAF
MIDLAND AREA WEATHER ROUNDUP
NATIONAL WEATHER SERVICE MIDLAND TX
1200 AM CDT FRI OCT 31 2014

...IN SOUTHWEST TEXAS AND SOUTHEAST NEW MEXICO...

CITY           SKY/WX    TMP DP  RH WIND       PRES   REMARKS
ALPINE         CLEAR     55  35  46 CALM      30.35R
ANDREWS        FAIR      58  48  69 NE9       30.29R
ARTESIA        NOT AVBL
BIG SPRING     CLEAR     65  47  51 NE17      30.28R
CARLSBAD       CLEAR     58  47  66 N6        30.28R
DRYDEN           N/A     68  60  75 NE6       30.14R
FORT STOCKTON  CLEAR     61  40  45 N3        30.23R
GUAD PASS      NOT AVBL
HOBBS          CLEAR     59  39  47 NE13      30.32R HAZE
MARFA          CLEAR     61  37  41 N12       30.31R
MIDLAND AIRPK  CLEAR     65  54  66 NE12      30.27R
MIDLAND INTL   CLEAR     66  54  65 NE17      30.25R
ODESSA         CLEAR     64  53  67 E14       30.26R
PECOS          CLEAR     57  45  63 W5        30.24R
PRESIDIO       FAIR      74  32  21 N9        30.16R
SEMINOLE       CLEAR     57  42  55 NE13      30.31S
SNYDER         CLEAR     62  38  40 NE10      30.28R
WINK           CLEAR     59  47  64 NE9       30.23R
$$
...OTHER STATIONS IN TEXAS...

CITY           SKY/WX    TMP DP  RH WIND       PRES   REMARKS
ABILENE        PTCLDY    68  40  35 NE9       30.25R
AMARILLO       CLEAR     49  31  49 E7        30.37R
AUSTIN         CLOUDY    66  61  84 CALM      30.11R
BROWNSVILLE    CLEAR     72  70  93 E3        30.07S
CORPUS CHRISTI PTCLDY    72  69  90 SE7       30.08S
DALLAS FTW     CLEAR     63  53  70 N9        30.17R
DEL RIO        CLEAR     70  61  73 CALM      30.08S
EL PASO        PTCLDY    68  32  26 VRB5      30.23R
HOUSTON INT    PTCLDY    60  55  83 CALM      30.09S
LUBBOCK        CLEAR     47  33  58 NE10      30.32R
SAN ANGELO     PTCLDY    71  58  63 NE16      30.20R
SAN ANTONIO    PTCLDY    70  63  78 E5        30.12R
WACO           CLOUDY    66  56  70 NW6       30.15R
WICHITA FALLS  NOT AVBL
$$
...OTHER LOCATIONS IN NEW MEXICO...

CITY           SKY/WX    TMP DP  RH WIND       PRES   REMARKS
ALAMAGORDO     NOT AVBL
ALBUQUERQUE    CLEAR     60  23  24 E18       30.32R
CANNON AFB     CLEAR     46  28  49 NE8       30.36R
CLOVIS         CLEAR     46  27  46 NE12      30.39R
HOLLOMAN AFB   CLEAR     55  32  42 W6        30.24R
ROSWELL        CLEAR     55  32  41 NE6       30.32R
RUIDOSO        CLEAR     46  27  46 SE7       30.47R
SANTA FE       CLEAR     53  20  27 SE15      30.40R
TRUTH OR CONSE PTCLDY    59  26  28 N5        30.27R
TUCUMCARI      CLEAR     47  25  42 E8        30.36R
$$

USA.gov is the U.S. government's official web portal to all federal, state and local government web resources and services.